Stations météo

Publicité
Chartres, France (7143): Température de l'air & dewpoint: 10.07.2018 14:00:00 - 16.07.2018 14:00:00 (CEST)Chartres, France (7143): Température de l'air 5cm: 10.07.2018 14:00:00 - 16.07.2018 14:00:00 (CEST)Chartres, France (7143): Température de l'air -20cm & Température de l'air -100cm: 10.07.2018 14:00:00 - 16.07.2018 14:00:00 (CEST)Chartres, France (7143): Vitesse du vent & gusts: 10.07.2018 14:00:00 - 16.07.2018 14:00:00 (CEST)Chartres, France (7143): Direction du vent: 10.07.2018 14:00:00 - 16.07.2018 14:00:00 (CEST)Chartres, France (7143): reduced air pressure: 10.07.2018 14:00:00 - 16.07.2018 14:00:00 (CEST)Chartres, France (7143): visibility: 10.07.2018 14:00:00 - 16.07.2018 14:00:00 (CEST)Chartres, France (7143): Ensoleillement: 10.07.2018 14:00:00 - 16.07.2018 14:00:00 (CEST)Chartres, France (7143): Quantités de précipitations: 10.07.2018 14:00:00 - 16.07.2018 14:00:00 (CEST)
Date & Time tt [°C] td [°C] tt 5cm [°C] tt -20cm [°C] tt -100cm [°C] ff [km/h] ff [knt] fx [km/h] fx [knt] dd ppp [hPa] vv [km] sd [min] rr [mm]
16.07.2018 14:00:00 27,7 13,2 - - - 13 7 26 14 N 1012,8 20 - -
16.07.2018 13:00:00 26,4 13,5 28,2 21,0 18,6 16 9 26 14 N 1013,1 20 50 0,0
16.07.2018 12:00:00 24,9 13,8 27,8 20,9 18,6 13 7 23 12 N 1013,3 20 56 0,0
16.07.2018 11:00:00 23,0 13,5 26,2 20,9 18,6 11 6 19 10 N 1013,5 20 56 0,0
16.07.2018 10:00:00 20,7 13,4 22,4 20,9 18,6 10 5 21 11 NNE 1013,7 20 34 0,0
16.07.2018 09:00:00 19,1 13,3 19,7 21,0 18,6 9 5 21 12 NNE 1013,6 20 58 0,0
16.07.2018 08:00:00 17,0 13,1 14,7 21,1 18,6 8 5 16 8 N 1013,5 20 34 0,0
16.07.2018 07:00:00 15,3 12,2 14,1 21,3 18,6 8 4 13 7 N 1013,8 20 0 0,0
16.07.2018 06:00:00 15,3 12,2 14,2 21,4 18,6 7 4 16 8 N 1013,9 20 0 0,0
16.07.2018 05:00:00 16,4 12,9 15,2 21,5 18,6 9 5 16 9 N 1013,7 20 0 0,0
16.07.2018 04:00:00 17,0 13,9 16,0 21,6 18,6 8 5 16 9 N 1013,8 20 0 0,0
16.07.2018 03:00:00 17,8 14,9 16,4 21,7 18,6 9 5 19 10 N 1014,0 20 0 0,0
16.07.2018 02:00:00 19,0 15,9 17,9 21,8 18,6 7 4 16 8 N 1014,0 20 0 0,0
16.07.2018 01:00:00 19,2 16,8 17,3 21,9 18,6 5 3 15 8 NNE 1014,1 20 0 0,0
16.07.2018 00:00:00 18,9 16,9 17,2 22,1 18,6 0 0 19 10 N 1014,9 20 0 1,2
15.07.2018 23:00:00 19,1 16,3 16,7 22,2 18,6 11 6 25 13 W 1015,6 8 0 9,0
15.07.2018 22:00:00 19,4 16,6 17,5 22,4 18,6 13 7 30 16 W 1015,1 3,1 0 9,3
15.07.2018 21:00:00 25,6 13,8 24,4 22,4 18,6 10 5 27 15 W 1013,3 19 0 0,0
15.07.2018 20:00:00 27,3 12,5 26,8 22,4 18,6 7 4 18 10 SE 1012,3 20 4 0,0
15.07.2018 19:00:00 28,4 11,0 28,3 22,3 18,6 8 4 16 8 NE 1012,3 20 14 0,0
15.07.2018 18:00:00 28,7 11,7 29,0 22,2 18,6 7 4 23 12 ENE 1012,5 20 26 0,0
15.07.2018 17:00:00 30,3 13,1 30,4 22,0 18,5 11 6 31 17 ENE 1012,7 20 46 0,0
15.07.2018 16:00:00 28,6 12,5 29,5 21,8 18,5 10 5 19 11 NNE 1013,2 20 23 0,0
15.07.2018 15:00:00 28,1 12,8 29,1 21,6 18,6 9 5 17 9 NE 1013,6 20 6 0,0
15.07.2018 14:00:00 29,9 12,8 36,9 21,3 18,5 8 4 20 11 NE 1014,1 20 60 0,0
15.07.2018 13:00:00 28,9 13,6 33,0 21,1 18,5 8 4 21 11 NE 1014,7 20 55 0,0
15.07.2018 12:00:00 27,1 13,1 24,6 21,1 18,5 9 5 15 8 NNE 1015,2 20 38 0,0
15.07.2018 11:00:00 23,0 16,8 20,8 21,1 18,5 2 1 14 8 S 1015,6 20 14 0,0
15.07.2018 10:00:00 19,5 15,2 17,8 21,2 18,5 10 5 23 12 NNE 1016,0 20 0 0,0
15.07.2018 09:00:00 18,7 14,6 18,4 21,3 18,5 10 6 21 11 NNE 1016,1 19 0 0,0
15.07.2018 08:00:00 17,9 14,2 17,2 21,4 18,5 6 3 14 7 N 1016,1 20 1 0,0
15.07.2018 07:00:00 17,2 13,7 15,8 21,5 18,5 7 4 12 6 N 1015,8 20 7 0,0
15.07.2018 06:00:00 17,1 13,6 15,9 21,6 18,5 6 3 16 9 N 1015,7 20 0 0,0
15.07.2018 05:00:00 17,9 13,8 16,8 21,8 18,5 7 4 16 8 N 1016,1 20 0 0,0
15.07.2018 04:00:00 19,4 13,8 17,0 21,9 18,5 11 6 19 11 NNE 1016,0 20 0 0,0
15.07.2018 03:00:00 19,4 14,0 17,3 22,0 18,5 0 0 9 5 N 1016,4 20 0 0,0
15.07.2018 02:00:00 20,0 13,7 18,3 22,1 18,5 6 3 10 5 NNE 1016,6 20 0 0,0
15.07.2018 01:00:00 20,8 14,2 17,4 22,2 18,5 6 3 19 10 ENE 1017,0 20 0 0,2
15.07.2018 00:00:00 21,5 13,9 19,8 22,3 18,5 10 5 27 14 SSE 1017,5 13 0 0,0
14.07.2018 23:00:00 22,3 14,2 19,7 22,4 18,5 4 2 9 5 NNW 1016,5 20 0 0,0
14.07.2018 22:00:00 23,4 13,8 21,2 22,5 18,5 5 3 11 6 NE 1015,8 20 0 0,0
14.07.2018 21:00:00 25,2 13,4 24,0 22,5 18,5 8 4 22 12 E 1015,8 20 0 0,0
14.07.2018 20:00:00 26,7 13,1 26,4 22,5 18,5 8 4 22 12 NNE 1015,7 20 0 0,0
14.07.2018 19:00:00 27,9 13,0 27,8 22,4 18,5 7 4 18 10 NE 1015,8 20 35 0,0
14.07.2018 18:00:00 28,4 13,1 29,5 22,2 18,5 9 5 21 11 N 1015,9 20 18 0,0
14.07.2018 17:00:00 29,2 12,6 30,2 22,1 18,5 6 3 21 11 NW 1016,2 19 32 0,0
14.07.2018 16:00:00 28,8 13,5 29,8 21,8 18,5 10 5 24 13 NE 1016,6 20 36 0,0
14.07.2018 15:00:00 28,5 13,2 31,0 21,5 18,5 8 5 22 12 ESE 1017,2 20 55 0,0
14.07.2018 14:00:00 27,2 14,2 30,5 21,2 18,5 10 6 24 13 NNE 1017,7 20 54 0,0
14.07.2018 13:00:00 26,9 13,3 34,2 21,0 18,5 10 6 23 13 ENE 1018,2 20 60 0,0
14.07.2018 12:00:00 26,3 13,8 32,6 20,8 18,5 13 7 23 12 NNE 1018,5 20 60 0,0
14.07.2018 11:00:00 24,8 15,4 29,2 20,8 18,5 10 5 18 10 NNE 1019,0 20 60 0,0
14.07.2018 10:00:00 22,3 14,9 25,6 20,8 18,5 9 5 15 8 NE 1019,2 17 60 0,0
14.07.2018 09:00:00 19,4 15,1 20,9 20,9 18,5 10 5 16 9 NNE 1019,4 14 60 0,0
14.07.2018 08:00:00 17,1 14,9 15,3 20,9 18,5 8 4 15 8 N 1019,6 15 60 0,0
14.07.2018 07:00:00 15,6 14,1 14,7 21,1 18,5 7 4 13 7 N 1019,5 13 7 0,0
14.07.2018 06:00:00 15,6 14,0 14,6 21,2 18,5 7 4 13 7 N 1019,5 15 0 0,0
14.07.2018 05:00:00 15,8 14,2 14,7 21,4 18,5 8 5 14 8 N 1019,8 15 0 0,0
14.07.2018 04:00:00 16,5 14,3 15,2 21,5 18,5 9 5 14 8 N 1019,7 19 0 0,0
14.07.2018 03:00:00 17,1 14,4 15,3 21,6 18,5 5 3 14 8 N 1019,7 20 0 0,0
14.07.2018 02:00:00 18,2 15,1 16,5 21,7 18,5 7 4 13 7 N 1019,9 20 0 0,0
14.07.2018 01:00:00 19,0 15,9 17,4 21,8 18,5 5 3 14 8 N 1020,1 20 0 0,0
14.07.2018 00:00:00 20,1 15,7 19,0 21,8 18,5 10 6 21 11 NNE 1019,9 20 0 0,0
13.07.2018 23:00:00 22,4 14,5 21,4 21,9 18,5 6 3 16 8 NNW 1019,6 20 0 0,0
13.07.2018 22:00:00 23,2 14,5 22,3 22,0 18,5 12 6 19 11 NNE 1018,7 20 0 0,0
13.07.2018 21:00:00 24,3 14,4 23,7 22,0 18,5 12 7 22 12 NNE 1018,2 20 0 0,0
13.07.2018 20:00:00 25,1 14,2 24,9 21,9 18,5 12 6 24 13 NNE 1017,9 20 3 0,0
13.07.2018 19:00:00 26,5 13,9 27,5 21,9 18,5 11 6 20 11 NNE 1017,7 20 28 0,0
13.07.2018 18:00:00 26,7 14,1 28,0 21,7 18,5 11 6 21 12 NE 1017,8 20 22 0,0
13.07.2018 17:00:00 27,6 14,2 29,6 21,6 18,5 9 5 24 13 NE 1018,1 20 47 0,0
13.07.2018 16:00:00 26,6 14,4 28,4 21,4 18,5 10 5 20 11 N 1018,6 20 13 0,0
13.07.2018 15:00:00 27,0 13,7 30,0 21,1 18,5 7 4 19 10 E 1018,8 20 42 0,0
13.07.2018 14:00:00 26,5 13,9 28,4 20,9 18,5 6 3 18 10 ENE 1019,1 19 30 0,0
13.07.2018 13:00:00 25,0 13,9 28,2 20,7 18,5 9 5 21 11 NE 1019,4 20 49 0,0
13.07.2018 12:00:00 24,8 14,6 30,7 20,5 18,5 12 6 22 12 NNE 1019,5 20 60 0,0
13.07.2018 11:00:00 23,3 15,4 28,9 20,4 18,5 7 4 18 10 N 1019,7 19 60 0,0
13.07.2018 10:00:00 21,0 14,9 25,0 20,4 18,5 10 5 16 9 N 1019,9 19 60 0,0
13.07.2018 09:00:00 19,2 15,1 20,5 20,4 18,5 10 5 16 9 NNE 1020,0 18 60 0,0
13.07.2018 08:00:00 17,2 14,7 15,4 20,5 18,5 8 4 16 9 N 1019,8 15 60 0,0
13.07.2018 07:00:00 15,7 13,9 14,2 20,6 18,5 8 5 13 7 N 1019,9 13 11 0,0
13.07.2018 06:00:00 15,2 13,6 14,0 20,7 18,5 6 4 10 6 N 1020,0 14 0 0,0
13.07.2018 05:00:00 15,6 13,6 14,6 20,8 18,5 6 3 10 6 N 1019,9 17 0 0,0
13.07.2018 04:00:00 16,4 13,9 15,5 20,9 18,5 7 4 12 6 N 1019,8 19 0 0,0
13.07.2018 03:00:00 17,5 14,0 16,4 21,0 18,5 6 3 14 8 NNE 1019,9 20 0 0,0
13.07.2018 02:00:00 18,2 13,9 17,3 21,2 18,5 9 5 17 9 NNE 1019,9 20 0 0,0
13.07.2018 01:00:00 18,7 13,5 17,6 21,3 18,5 10 5 16 9 N 1019,9 20 0 0,0
13.07.2018 00:00:00 19,0 12,7 16,1 21,3 18,5 8 5 13 7 N 1019,7 20 0 0,0
12.07.2018 23:00:00 19,7 12,7 17,1 21,4 18,5 5 3 9 5 N 1019,3 20 0 0,0
12.07.2018 22:00:00 20,5 12,2 18,6 21,4 18,5 5 3 13 7 N 1019,0 20 23 0,0
12.07.2018 21:00:00 22,8 11,5 22,7 21,4 18,5 7 4 15 8 NNE 1018,5 20 57 0,0
12.07.2018 20:00:00 24,3 10,9 26,0 21,3 18,5 9 5 17 9 NNE 1018,3 20 49 0,0
12.07.2018 19:00:00 25,2 10,6 27,2 21,3 18,5 10 5 21 11 NE 1018,0 20 35 0,0
12.07.2018 18:00:00 24,5 11,4 27,1 21,1 18,5 10 5 20 11 NNE 1018,2 20 4 0,0
12.07.2018 17:00:00 24,4 11,0 27,7 20,9 18,5 9 5 23 12 NE 1018,4 20 32 0,0
12.07.2018 16:00:00 24,3 10,9 29,6 20,7 18,5 11 6 24 13 NE 1018,6 20 38 0,0
12.07.2018 15:00:00 23,6 11,0 27,3 20,6 18,5 13 7 25 13 NE 1018,8 20 14 0,0
12.07.2018 14:00:00 23,4 11,4 25,8 20,4 18,5 10 5 22 12 NNE 1019,0 20 19 0,0
12.07.2018 13:00:00 22,1 11,8 25,0 20,3 18,5 11 6 22 12 NE 1019,3 20 5 0,0
12.07.2018 12:00:00 21,7 12,3 25,0 20,2 18,6 9 5 21 11 ENE 1019,3 20 35 0,0
12.07.2018 11:00:00 20,8 13,7 24,0 20,1 18,5 7 4 16 9 NNE 1019,3 18 51 0,0
12.07.2018 10:00:00 17,9 13,4 17,8 20,1 18,5 10 5 19 10 NNE 1019,6 19 24 0,0
12.07.2018 09:00:00 15,9 12,6 16,5 20,2 18,5 9 5 18 10 NNE 1019,7 18 0 0,0
12.07.2018 08:00:00 14,4 12,4 13,7 20,3 18,5 8 4 17 9 N 1019,4 15 3 0,0
12.07.2018 07:00:00 13,5 12,1 12,9 20,4 18,5 9 5 15 8 N 1019,2 15 0 0,0
12.07.2018 06:00:00 13,2 11,9 12,5 20,6 18,6 8 5 14 7 N 1019,1 15 0 0,0
12.07.2018 05:00:00 13,4 12,0 12,4 20,7 18,5 9 5 13 7 N 1019,0 17 0 0,0
12.07.2018 04:00:00 13,6 12,0 12,4 20,8 18,5 8 4 16 8 N 1019,1 18 0 0,0
12.07.2018 03:00:00 14,4 12,4 13,0 20,9 18,6 9 5 16 9 N 1019,3 20 0 0,0
12.07.2018 02:00:00 15,3 12,6 13,7 21,0 18,5 9 5 18 10 N 1019,2 20 0 0,0
12.07.2018 01:00:00 16,2 12,7 14,5 21,1 18,6 9 5 17 9 N 1019,1 20 0 0,0
12.07.2018 00:00:00 17,7 12,6 16,2 21,2 18,5 7 4 17 9 N 1019,1 20 0 0,0
11.07.2018 23:00:00 18,7 12,7 17,5 21,3 18,6 9 5 14 8 NNE 1018,9 20 0 0,0
11.07.2018 22:00:00 19,7 12,7 19,0 21,3 18,5 8 4 16 9 NE 1018,4 20 0 0,0
11.07.2018 21:00:00 20,5 12,5 20,5 21,3 18,5 8 4 16 9 NNE 1018,4 20 0 0,0
11.07.2018 20:00:00 21,2 12,1 22,2 21,3 18,5 8 4 24 13 NE 1018,2 20 0 0,0
11.07.2018 19:00:00 21,9 12,2 22,7 21,2 18,5 13 7 24 13 NE 1018,1 20 22 0,0
11.07.2018 18:00:00 21,9 11,6 24,8 21,1 18,6 14 7 28 15 NE 1018,4 20 9 0,0
11.07.2018 17:00:00 22,4 12,1 24,8 21,0 18,5 11 6 22 12 NE 1018,3 20 20 0,0
11.07.2018 16:00:00 21,8 11,5 24,6 20,8 18,6 13 7 23 12 NE 1018,8 20 12 0,0
11.07.2018 15:00:00 21,3 10,7 24,5 20,7 18,5 11 6 23 13 NE 1019,0 20 9 0,0
11.07.2018 14:00:00 20,7 11,1 23,7 20,5 18,5 13 7 23 12 NE 1019,3 20 26 0,0
11.07.2018 13:00:00 20,6 11,5 22,8 20,4 18,5 12 6 23 12 NE 1019,5 20 14 0,0
11.07.2018 12:00:00 19,5 11,5 21,5 20,4 18,5 10 6 20 11 NNE 1019,9 20 17 0,0
11.07.2018 11:00:00 18,5 12,9 18,6 20,4 18,5 7 4 19 10 NE 1020,1 20 26 0,0
11.07.2018 10:00:00 16,6 12,1 16,8 20,5 18,5 10 5 23 12 NNE 1020,4 20 0 0,0
11.07.2018 09:00:00 15,9 12,1 15,5 20,6 18,5 11 6 19 10 NNE 1020,6 20 0 0,0
11.07.2018 08:00:00 15,0 11,8 12,4 20,6 18,5 7 4 12 6 N 1020,4 20 0 0,0
11.07.2018 07:00:00 13,0 10,7 11,4 20,8 18,5 6 4 16 9 N 1020,4 20 0 0,0
11.07.2018 06:00:00 12,8 10,3 11,3 20,9 18,5 9 5 16 9 N 1020,4 20 0 0,0
11.07.2018 05:00:00 13,3 10,5 11,8 21,1 18,5 8 4 16 9 N 1020,4 20 0 0,0
11.07.2018 04:00:00 14,1 10,5 10,7 21,3 18,5 6 3 11 6 N 1020,5 20 0 0,0
11.07.2018 03:00:00 12,4 9,6 10,7 21,4 18,5 8 4 10 5 N 1020,7 20 0 0,0
11.07.2018 02:00:00 13,4 9,3 11,4 21,6 18,5 5 3 14 8 N 1020,6 20 0 0,0
11.07.2018 01:00:00 14,4 9,0 12,5 21,7 18,5 8 5 15 8 NNE 1020,7 20 0 0,0
11.07.2018 00:00:00 15,0 8,9 13,5 21,9 18,5 8 5 16 9 NNE 1020,8 20 0 0,0
10.07.2018 23:00:00 16,3 9,0 14,8 22,0 18,5 11 6 19 10 NNE 1020,5 20 0 0,0
10.07.2018 22:00:00 17,7 8,8 16,5 22,1 18,5 12 6 27 15 NE 1020,2 20 25 0,0
10.07.2018 21:00:00 19,9 8,6 20,5 22,2 18,5 15 8 29 16 NE 1019,6 20 60 0,0
10.07.2018 20:00:00 21,6 8,5 25,2 22,2 18,5 16 9 31 17 NNE 1019,2 20 60 0,0
10.07.2018 19:00:00 22,7 8,0 27,8 22,1 18,5 16 9 31 17 NNE 1018,8 20 60 0,0
10.07.2018 18:00:00 23,6 9,2 29,1 22,0 18,5 16 9 32 17 N 1019,0 20 60 0,0
10.07.2018 17:00:00 23,3 9,3 27,8 21,8 18,5 15 8 35 19 NNE 1019,2 20 56 0,0
10.07.2018 16:00:00 23,6 10,3 24,9 21,7 18,4 15 8 36 19 NNE 1019,4 20 38 0,0
10.07.2018 15:00:00 23,1 10,8 24,7 21,5 18,5 16 9 31 17 N 1019,7 20 40 0,0
10.07.2018 14:00:00 22,7 12,3 24,0 21,3 18,4 13 7 29 16 N 1020,0 20 46 0,0

tt = Température de l'air
td = dewpoint
tt 5cm = Température de l'air 5cm
tt -20cm = Température de l'air -20cm
tt -100cm = Température de l'air -100cm
ff = Vitesse du vent
fx = gusts
dd = Direction du vent
ppp = reduced air pressure
vv = visibility
sd = Ensoleillement
rr = Quantités de précipitations

stations d'obs. à proximité